Location: Newark
(48.1281°N, 2.1556°W)
Time: 06:18:40
(UTC+00:00)

Envisat - Pass Details

Date: 24 November 2019
Orbit: 764 x 766 km, 98.1° (Epoch: 07 December)

Event Time Altitude Azimuth Distance (km) Brightness Sun altitude
Rises 06:12:42 0° 22° (NNE) 3,243 6.3 -12.3°
Reaches altitude 10° 06:15:19 10° 34° (NNE) 2,311 5.7 -11.9°
Maximum altitude 06:19:44 29° 94° (E) 1,374 5.2 -11.2°
Drops below altitude 10° 06:24:07 10° 154° (SSE) 2,296 6.2 -10.5°
Sets 06:26:41 0° 166° (SSE) 3,217 6.7 -10.1°
